sat.trackr.live / text

‹ back to catalog

GSAT0227 (GALILEO 30)

NORAD 59600 · 2024-079C

PAYLOAD ACTIVE UNKNOWN

§ Identity

Operator
Country
ESA
Launch date
2024-04-28
Launch site
AFETR
Launch vehicle
Mass (kg)
RCS (m²)

Purposes: earth_obs, nav

External: N2YO · Heavens-Above · Gunter

§ Orbital elements

Epoch: 2026-05-24T12:56:51.909216Z

Period
844.70 min
Inclination
55.1009°
Eccentricity
0.0001697
Mean motion
1.70474140 rev/d
Perigee alt
23,217.1 km
Apogee alt
23,227.2 km
Semi-major
29,600.3 km
B*
0.0000e+0
RAAN
101.7389°
Arg perigee
32.5284°
Mean anomaly
327.4422°
Rev number
1,296

§ Raw data

GSAT0227 (GALILEO 30)1 59600U 24079C   26144.53948969  .00000014  00000+0  00000+0 0  99952 59600  55.1009 101.7389 0001697  32.5284 327.4422  1.70474140 12968

JSON: /api/v1/satellites/59600 · /tle

For live sub-satellite position, see the globe view (requires WebGL).

§ Visibility from observer

Set your observer location to see the next 7 days of passes ≥ 10°. The values pass through the URL so the page stays shareable.

No JS? Fill the form by hand. The geolocation button needs JavaScript.